Time,TemperatureF,DewpointF,PressureIn,WindDirection,WindDirectionDegrees,WindSpeedMPH,WindSpeedGustMPH,Humidity,HourlyPrecipIn,Conditions,Clouds,dailyrainin,SoftwareType,DateUTC
2013-03-18 00:00:00,46.4,42.4,30.02,NNE,32,2.0,2.0,86,0.00,,,0.00,Wunderground v.1.15,2013-03-18 04:00:00,
2013-03-18 00:05:00,46.1,42.1,30.03,SE,132,1.0,2.0,86,0.00,,,0.00,Wunderground v.1.15,2013-03-18 04:05:00,
2013-03-18 00:10:00,45.9,41.9,30.02,SW,225,1.0,1.0,86,0.00,,,0.00,Wunderground v.1.15,2013-03-18 04:10:00,
2013-03-18 00:15:00,45.6,41.7,30.03,SSW,200,2.0,2.0,86,0.00,,,0.00,Wunderground v.1.15,2013-03-18 04:15:00,
2013-03-18 00:25:00,45.2,41.3,30.03,SW,225,2.0,3.0,86,0.00,,,0.00,Wunderground v.1.15,2013-03-18 04:25:00,
2013-03-18 00:30:00,45.0,41.4,30.02,SSW,194,2.0,6.0,87,0.00,,,0.00,Wunderground v.1.15,2013-03-18 04:30:00,
2013-03-18 00:40:00,44.9,41.3,30.03,SSE,167,2.0,2.0,87,0.00,,,0.00,Wunderground v.1.15,2013-03-18 04:40:00,
2013-03-18 00:45:00,44.8,41.2,30.02,SE,146,1.0,2.0,87,0.00,,,0.00,Wunderground v.1.15,2013-03-18 04:45:00,
2013-03-18 00:50:00,44.7,41.1,30.02,SSW,204,1.0,1.0,87,0.00,,,0.00,Wunderground v.1.15,2013-03-18 04:50:00,
2013-03-18 00:55:00,44.6,41.0,30.02,South,190,2.0,3.0,87,0.00,,,0.00,Wunderground v.1.15,2013-03-18 04:55:00,
2013-03-18 01:00:00,44.5,40.9,30.02,SSW,195,2.0,2.0,87,0.00,,,0.00,Wunderground v.1.15,2013-03-18 05:00:00,
2013-03-18 01:05:00,44.4,40.8,30.03,ENE,76,1.0,2.0,87,0.00,,,0.00,Wunderground v.1.15,2013-03-18 05:05:00,
2013-03-18 01:10:00,44.3,40.7,30.02,SE,137,0.0,0.0,87,0.00,,,0.00,Wunderground v.1.15,2013-03-18 05:10:00,
2013-03-18 01:15:00,44.3,40.7,30.03,SW,236,1.0,1.0,87,0.00,,,0.00,Wunderground v.1.15,2013-03-18 05:15:00,
2013-03-18 01:20:00,44.3,40.7,30.03,SW,236,1.0,1.0,87,0.00,,,0.00,Wunderground v.1.15,2013-03-18 05:20:00,
2013-03-18 01:25:00,44.2,40.6,30.03,North,355,1.0,1.0,87,0.00,,,0.00,Wunderground v.1.15,2013-03-18 05:25:00,
2013-03-18 01:30:00,44.1,40.5,30.03,ENE,57,1.0,1.0,87,0.00,,,0.00,Wunderground v.1.15,2013-03-18 05:30:00,
2013-03-18 01:35:00,44.0,40.4,30.03,NE,38,1.0,2.0,87,0.00,,,0.00,Wunderground v.1.15,2013-03-18 05:35:00,
2013-03-18 01:40:00,43.8,40.2,30.03,South,172,1.0,1.0,87,0.00,,,0.00,Wunderground v.1.15,2013-03-18 05:40:00,
2013-03-18 01:45:00,43.7,40.1,30.03,ESE,108,2.0,4.0,87,0.00,,,0.00,Wunderground v.1.15,2013-03-18 05:45:00,
2013-03-18 01:50:00,43.5,40.2,30.03,South,175,2.0,4.0,88,0.00,,,0.00,Wunderground v.1.15,2013-03-18 05:50:00,
2013-03-18 01:55:00,43.3,40.0,30.02,ENE,71,2.0,4.0,88,0.00,,,0.00,Wunderground v.1.15,2013-03-18 05:55:00,
2013-03-18 02:00:00,43.1,39.8,30.02,SSW,209,2.0,2.0,88,0.00,,,0.00,Wunderground v.1.15,2013-03-18 06:00:00,
2013-03-18 02:05:00,42.8,39.5,30.03,NE,36,3.0,4.0,88,0.00,,,0.00,Wunderground v.1.15,2013-03-18 06:05:00,
2013-03-18 02:10:00,42.7,39.4,30.03,SE,130,2.0,2.0,88,0.00,,,0.00,Wunderground v.1.15,2013-03-18 06:10:00,
2013-03-18 02:15:00,42.5,39.2,30.03,South,169,2.0,2.0,88,0.00,,,0.00,Wunderground v.1.15,2013-03-18 06:15:00,
2013-03-18 02:20:00,42.4,39.4,30.04,SE,134,3.0,3.0,89,0.00,,,0.00,Wunderground v.1.15,2013-03-18 06:20:00,
2013-03-18 02:25:00,42.2,39.2,30.03,South,182,2.0,3.0,89,0.00,,,0.00,Wunderground v.1.15,2013-03-18 06:25:00,
2013-03-18 02:30:00,42.2,39.2,30.03,NNE,24,1.0,2.0,89,0.00,,,0.00,Wunderground v.1.15,2013-03-18 06:30:00,
2013-03-18 02:35:00,42.0,39.0,30.03,East,83,2.0,2.0,89,0.00,,,0.00,Wunderground v.1.15,2013-03-18 06:35:00,
2013-03-18 02:40:00,42.0,39.0,30.04,SSE,157,1.0,1.0,89,0.00,,,0.00,Wunderground v.1.15,2013-03-18 06:40:00,
2013-03-18 02:45:00,41.9,38.9,30.04,South,172,2.0,2.0,89,0.00,,,0.00,Wunderground v.1.15,2013-03-18 06:45:00,
2013-03-18 02:50:00,41.8,39.1,30.04,SW,217,2.0,6.0,90,0.00,,,0.00,Wunderground v.1.15,2013-03-18 06:50:00,
2013-03-18 02:55:00,41.7,39.0,30.04,South,171,1.0,6.0,90,0.00,,,0.00,Wunderground v.1.15,2013-03-18 06:55:00,
2013-03-18 03:00:00,41.6,38.9,30.04,SSE,165,1.0,4.0,90,0.00,,,0.00,Wunderground v.1.15,2013-03-18 07:00:00,
2013-03-18 03:05:00,41.5,38.8,30.04,SSW,213,1.0,4.0,90,0.00,,,0.00,Wunderground v.1.15,2013-03-18 07:05:00,
2013-03-18 03:10:00,41.3,38.9,30.04,SSW,205,2.0,2.0,91,0.00,,,0.00,Wunderground v.1.15,2013-03-18 07:10:00,
2013-03-18 03:15:00,41.1,38.7,30.04,ESE,112,2.0,2.0,91,0.00,,,0.00,Wunderground v.1.15,2013-03-18 07:15:00,
2013-03-18 03:20:00,41.0,40.2,30.04,ESE,109,2.0,2.0,97,0.00,,,0.00,Wunderground v.1.15,2013-03-18 07:20:00,
2013-03-18 03:25:00,40.9,38.8,30.04,ESE,108,1.0,2.0,92,0.00,,,0.00,Wunderground v.1.15,2013-03-18 07:25:00,
2013-03-18 03:30:00,40.9,38.8,30.04,East,93,1.0,4.0,92,0.00,,,0.00,Wunderground v.1.15,2013-03-18 07:30:00,
2013-03-18 03:35:00,40.7,38.6,30.04,SE,146,1.0,4.0,92,0.00,,,0.00,Wunderground v.1.15,2013-03-18 07:35:00,
2013-03-18 03:40:00,40.7,38.6,30.04,SE,129,1.0,8.0,92,0.00,,,0.00,Wunderground v.1.15,2013-03-18 07:40:00,
2013-03-18 03:45:00,40.5,38.6,30.04,West,259,2.0,8.0,93,0.00,,,0.00,Wunderground v.1.15,2013-03-18 07:45:00,
2013-03-18 03:55:00,40.2,38.3,30.03,WSW,252,1.0,2.0,93,0.00,,,0.00,Wunderground v.1.15,2013-03-18 07:55:00,
2013-03-18 04:00:00,40.1,38.5,30.04,ENE,76,1.0,1.0,94,0.00,,,0.00,Wunderground v.1.15,2013-03-18 08:00:00,
2013-03-18 04:05:00,40.0,38.4,30.04,SW,232,2.0,3.0,94,0.00,,,0.00,Wunderground v.1.15,2013-03-18 08:05:00,
2013-03-18 04:10:00,39.8,38.2,30.03,SE,144,2.0,2.0,94,0.00,,,0.00,Wunderground v.1.15,2013-03-18 08:10:00,
2013-03-18 04:15:00,39.7,38.1,30.03,South,183,1.0,2.0,94,0.00,,,0.00,Wunderground v.1.15,2013-03-18 08:15:00,
2013-03-18 04:20:00,39.6,38.3,30.04,SSW,198,1.0,1.0,95,0.00,,,0.00,Wunderground v.1.15,2013-03-18 08:20:00,
2013-03-18 04:25:00,39.5,38.2,30.04,SW,229,1.0,1.0,95,0.00,,,0.00,Wunderground v.1.15,2013-03-18 08:25:00,
2013-03-18 04:30:00,39.4,38.1,30.03,SSE,147,1.0,1.0,95,0.00,,,0.00,Wunderground v.1.15,2013-03-18 08:30:00,
2013-03-18 04:35:00,39.3,38.0,30.04,East,80,1.0,1.0,95,0.00,,,0.00,Wunderground v.1.15,2013-03-18 08:35:00,
2013-03-18 04:40:00,39.3,38.0,30.04,WNW,298,0.0,1.0,95,0.00,,,0.00,Wunderground v.1.15,2013-03-18 08:40:00,
2013-03-18 04:45:00,39.3,38.0,30.04,West,279,0.0,1.0,95,0.00,,,0.00,Wunderground v.1.15,2013-03-18 08:45:00,
2013-03-18 04:55:00,39.3,38.3,30.05,ESE,114,0.0,0.0,96,0.00,,,0.00,Wunderground v.1.15,2013-03-18 08:55:00,
2013-03-18 05:00:00,39.3,38.3,30.05,ESE,114,0.0,0.0,96,0.00,,,0.00,Wunderground v.1.15,2013-03-18 09:00:00,
2013-03-18 05:05:00,39.3,38.3,30.04,ENE,71,0.0,2.0,96,0.00,,,0.00,Wunderground v.1.15,2013-03-18 09:05:00,
2013-03-18 05:10:00,39.2,38.2,30.04,WSW,240,1.0,1.0,96,0.00,,,0.00,Wunderground v.1.15,2013-03-18 09:10:00,
2013-03-18 05:15:00,39.1,38.1,30.05,SE,141,1.0,2.0,96,0.00,,,0.00,Wunderground v.1.15,2013-03-18 09:15:00,
2013-03-18 05:20:00,38.9,37.9,30.05,ESE,121,1.0,1.0,96,0.00,,,0.00,Wunderground v.1.15,2013-03-18 09:20:00,
2013-03-18 05:25:00,38.8,37.8,30.04,NNE,29,1.0,1.0,96,0.00,,,0.00,Wunderground v.1.15,2013-03-18 09:25:00,
2013-03-18 05:30:00,38.8,37.8,30.04,NNE,29,0.0,0.0,96,0.00,,,0.00,Wunderground v.1.15,2013-03-18 09:30:00,
2013-03-18 05:40:00,38.8,37.8,30.05,North,5,0.0,0.0,96,0.00,,,0.00,Wunderground v.1.15,2013-03-18 09:40:00,
2013-03-18 05:45:00,38.8,37.8,30.05,North,5,0.0,0.0,96,0.00,,,0.00,Wunderground v.1.15,2013-03-18 09:45:00,
2013-03-18 05:50:00,38.7,37.7,30.05,ESE,105,0.0,0.0,96,0.00,,,0.00,Wunderground v.1.15,2013-03-18 09:50:00,
2013-03-18 05:55:00,38.6,37.6,30.05,East,99,0.0,0.0,96,0.00,,,0.00,Wunderground v.1.15,2013-03-18 09:55:00,
2013-03-18 06:00:00,38.7,37.7,30.04,East,99,0.0,0.0,96,0.00,,,0.00,Wunderground v.1.15,2013-03-18 10:00:00,
2013-03-18 06:05:00,38.6,37.6,30.03,East,99,0.0,0.0,96,0.00,,,0.00,Wunderground v.1.15,2013-03-18 10:05:00,
2013-03-18 06:15:00,38.5,37.5,30.04,South,188,1.0,2.0,96,0.00,,,0.00,Wunderground v.1.15,2013-03-18 10:15:00,
2013-03-18 06:25:00,38.3,37.5,30.05,SSW,202,0.0,1.0,97,0.00,,,0.00,Wunderground v.1.15,2013-03-18 10:25:00,
2013-03-18 06:30:00,38.2,37.4,30.05,SSW,209,1.0,4.0,97,0.00,,,0.00,Wunderground v.1.15,2013-03-18 10:30:00,
2013-03-18 06:35:00,38.1,37.1,30.05,SSW,211,1.0,4.0,96,0.00,,,0.00,Wunderground v.1.15,2013-03-18 10:35:00,
2013-03-18 06:40:00,38.1,37.3,30.05,SSW,201,0.0,2.0,97,0.00,,,0.00,Wunderground v.1.15,2013-03-18 10:40:00,
2013-03-18 06:45:00,38.0,37.2,30.05,ESE,121,0.0,2.0,97,0.00,,,0.00,Wunderground v.1.15,2013-03-18 10:45:00,
2013-03-18 06:50:00,37.9,37.1,30.04,NE,36,1.0,1.0,97,0.00,,,0.00,Wunderground v.1.15,2013-03-18 10:50:00,
2013-03-18 06:55:00,37.8,37.0,30.05,SW,217,1.0,1.0,97,0.00,,,0.00,Wunderground v.1.15,2013-03-18 10:55:00,
2013-03-18 07:00:00,37.7,36.9,30.05,SSW,209,2.0,4.0,97,0.00,,,0.00,Wunderground v.1.15,2013-03-18 11:00:00,
2013-03-18 07:05:00,37.5,36.7,30.06,SSW,208,1.0,4.0,97,0.00,,,0.00,Wunderground v.1.15,2013-03-18 11:05:00,
2013-03-18 07:10:00,37.5,36.7,30.06,SSE,160,1.0,4.0,97,0.00,,,0.00,Wunderground v.1.15,2013-03-18 11:10:00,
2013-03-18 07:15:00,37.5,36.7,30.06,South,171,1.0,4.0,97,0.00,,,0.00,Wunderground v.1.15,2013-03-18 11:15:00,
2013-03-18 07:20:00,37.5,36.7,30.06,ENE,63,1.0,1.0,97,0.00,,,0.00,Wunderground v.1.15,2013-03-18 11:20:00,
2013-03-18 07:25:00,37.4,36.6,30.06,South,190,1.0,1.0,97,0.00,,,0.00,Wunderground v.1.15,2013-03-18 11:25:00,
2013-03-18 07:30:00,37.4,36.6,30.07,SW,225,1.0,1.0,97,0.00,,,0.00,Wunderground v.1.15,2013-03-18 11:30:00,
2013-03-18 07:35:00,37.3,36.5,30.06,SE,127,1.0,1.0,97,0.00,,,0.00,Wunderground v.1.15,2013-03-18 11:35:00,
2013-03-18 07:40:00,37.3,36.5,30.06,SSW,200,1.0,1.0,97,0.00,,,0.00,Wunderground v.1.15,2013-03-18 11:40:00,
2013-03-18 07:45:00,37.2,36.4,30.06,ESE,109,1.0,1.0,97,0.00,,,0.00,Wunderground v.1.15,2013-03-18 11:45:00,
2013-03-18 07:50:00,37.2,36.4,30.07,South,184,1.0,2.0,97,0.00,,,0.00,Wunderground v.1.15,2013-03-18 11:50:00,
2013-03-18 07:55:00,37.1,36.3,30.07,SW,222,1.0,2.0,97,0.00,,,0.00,Wunderground v.1.15,2013-03-18 11:55:00,
2013-03-18 08:00:00,37.1,36.3,30.07,East,83,1.0,1.0,97,0.00,,,0.00,Wunderground v.1.15,2013-03-18 12:00:00,
2013-03-18 08:05:00,37.0,36.2,30.07,SW,233,1.0,1.0,97,0.00,,,0.00,Wunderground v.1.15,2013-03-18 12:05:00,
2013-03-18 08:10:00,37.0,36.2,30.07,NE,42,1.0,3.0,97,0.00,,,0.00,Wunderground v.1.15,2013-03-18 12:10:00,
2013-03-18 08:15:00,36.9,36.1,30.07,ESE,114,1.0,3.0,97,0.00,,,0.00,Wunderground v.1.15,2013-03-18 12:15:00,
2013-03-18 08:20:00,36.8,36.0,30.07,ESE,117,1.0,1.0,97,0.00,,,0.00,Wunderground v.1.15,2013-03-18 12:20:00,
2013-03-18 08:25:00,36.8,36.0,30.07,SSW,203,1.0,2.0,97,0.00,,,0.00,Wunderground v.1.15,2013-03-18 12:25:00,
2013-03-18 08:30:00,36.7,35.9,30.07,East,94,1.0,1.0,97,0.00,,,0.00,Wunderground v.1.15,2013-03-18 12:30:00,
2013-03-18 08:35:00,36.7,35.9,30.07,ENE,66,1.0,1.0,97,0.00,,,0.00,Wunderground v.1.15,2013-03-18 12:35:00,
2013-03-18 08:40:00,36.6,35.8,30.07,NNE,32,1.0,1.0,97,0.00,,,0.00,Wunderground v.1.15,2013-03-18 12:40:00,
2013-03-18 08:45:00,36.7,35.9,30.07,ESE,117,1.0,1.0,97,0.00,,,0.00,Wunderground v.1.15,2013-03-18 12:45:00,
2013-03-18 08:55:00,36.8,36.0,30.07,NE,47,0.0,2.0,97,0.00,,,0.00,Wunderground v.1.15,2013-03-18 12:55:00,
2013-03-18 09:00:00,36.7,35.9,30.07,NE,45,1.0,3.0,97,0.00,,,0.01,Wunderground v.1.15,2013-03-18 13:00:00,
2013-03-18 09:05:00,36.6,35.8,30.07,SSW,201,1.0,3.0,97,0.00,,,0.01,Wunderground v.1.15,2013-03-18 13:05:00,
2013-03-18 09:15:00,36.5,35.7,30.08,SE,137,0.0,0.0,97,0.00,,,0.01,Wunderground v.1.15,2013-03-18 13:15:00,
2013-03-18 09:25:00,36.4,35.6,30.07,NNW,346,1.0,4.0,97,0.00,,,0.01,Wunderground v.1.15,2013-03-18 13:25:00,
2013-03-18 09:29:00,36.3,35.5,30.07,West,265,1.0,1.0,97,0.00,,,0.01,Wunderground v.1.15,2013-03-18 13:29:00,
2013-03-18 09:35:00,36.2,35.4,30.07,North,351,1.0,1.0,97,0.00,,,0.01,Wunderground v.1.15,2013-03-18 13:35:00,
2013-03-18 09:40:00,36.2,35.4,30.07,NW,313,0.0,0.0,97,0.00,,,0.01,Wunderground v.1.15,2013-03-18 13:40:00,
2013-03-18 09:45:00,36.2,35.4,30.06,NNE,30,1.0,1.0,97,0.00,,,0.01,Wunderground v.1.15,2013-03-18 13:45:00,
2013-03-18 09:50:00,36.2,35.4,30.06,East,97,1.0,1.0,97,0.00,,,0.01,Wunderground v.1.15,2013-03-18 13:50:00,
2013-03-18 09:55:00,36.2,35.4,30.06,South,189,0.0,1.0,97,0.00,,,0.01,Wunderground v.1.15,2013-03-18 13:55:00,
2013-03-18 10:00:00,36.2,35.4,30.06,South,189,0.0,0.0,97,0.00,,,0.01,Wunderground v.1.15,2013-03-18 14:00:00,
2013-03-18 10:05:00,36.2,35.4,30.07,SW,215,0.0,0.0,97,0.00,,,0.01,Wunderground v.1.15,2013-03-18 14:05:00,
2013-03-18 10:10:00,36.2,35.4,30.07,SSE,166,1.0,1.0,97,0.00,,,0.01,Wunderground v.1.15,2013-03-18 14:10:00,
2013-03-18 10:15:00,36.2,35.4,30.08,NNE,16,0.0,2.0,97,0.00,,,0.02,Wunderground v.1.15,2013-03-18 14:15:00,
2013-03-18 10:20:00,36.1,35.3,30.08,ENE,71,1.0,1.0,97,0.00,,,0.02,Wunderground v.1.15,2013-03-18 14:20:00,
2013-03-18 10:25:00,36.1,35.3,30.08,NNE,33,1.0,1.0,97,0.00,,,0.02,Wunderground v.1.15,2013-03-18 14:25:00,
2013-03-18 10:30:00,36.1,35.3,30.07,NNE,33,0.0,0.0,97,0.00,,,0.02,Wunderground v.1.15,2013-03-18 14:30:00,
2013-03-18 10:35:00,36.2,35.4,30.08,North,9,0.0,0.0,97,0.00,,,0.02,Wunderground v.1.15,2013-03-18 14:35:00,
2013-03-18 10:40:00,36.2,35.4,30.08,SE,140,0.0,0.0,97,0.00,,,0.02,Wunderground v.1.15,2013-03-18 14:40:00,
2013-03-18 10:50:00,36.3,35.5,30.08,SSW,201,1.0,1.0,97,0.00,,,0.02,Wunderground v.1.15,2013-03-18 14:50:00,
2013-03-18 10:55:00,36.2,35.4,30.08,ESE,104,1.0,1.0,97,0.00,,,0.02,Wunderground v.1.15,2013-03-18 14:55:00,
2013-03-18 11:00:00,36.2,35.4,30.08,ESE,104,0.0,0.0,97,0.00,,,0.02,Wunderground v.1.15,2013-03-18 15:00:00,
2013-03-18 11:05:00,36.3,35.5,30.08,ESE,104,0.0,0.0,97,0.00,,,0.02,Wunderground v.1.15,2013-03-18 15:05:00,
2013-03-18 11:15:00,36.2,35.4,30.07,NE,42,1.0,1.0,97,0.00,,,0.02,Wunderground v.1.15,2013-03-18 15:15:00,
2013-03-18 11:20:00,36.3,35.5,30.07,NE,42,0.0,0.0,97,0.00,,,0.02,Wunderground v.1.15,2013-03-18 15:20:00,
2013-03-18 11:25:00,36.4,35.6,30.07,ESE,119,1.0,4.0,97,0.00,,,0.02,Wunderground v.1.15,2013-03-18 15:25:00,
2013-03-18 11:30:00,36.4,35.6,30.07,ESE,103,1.0,1.0,97,0.00,,,0.02,Wunderground v.1.15,2013-03-18 15:30:00,
2013-03-18 11:35:00,36.4,35.6,30.07,NNW,329,0.0,1.0,97,0.00,,,0.02,Wunderground v.1.15,2013-03-18 15:35:00,
2013-03-18 11:40:00,36.4,35.6,30.07,ESE,110,0.0,0.0,97,0.00,,,0.02,Wunderground v.1.15,2013-03-18 15:40:00,
2013-03-18 11:45:00,36.5,35.7,30.06,ESE,110,0.0,0.0,97,0.00,,,0.02,Wunderground v.1.15,2013-03-18 15:45:00,
2013-03-18 11:50:00,36.5,35.7,30.06,SE,124,0.0,5.0,97,0.00,,,0.02,Wunderground v.1.15,2013-03-18 15:50:00,
2013-03-18 11:55:00,36.4,35.6,30.06,SSW,200,1.0,1.0,97,0.00,,,0.02,Wunderground v.1.15,2013-03-18 15:55:00,
2013-03-18 12:00:00,36.4,35.6,30.05,SE,139,1.0,1.0,97,0.00,,,0.03,Wunderground v.1.15,2013-03-18 16:00:00,
2013-03-18 12:05:00,36.4,35.6,30.05,SSE,159,1.0,2.0,97,0.00,,,0.03,Wunderground v.1.15,2013-03-18 16:05:00,
2013-03-18 12:10:00,36.4,35.6,30.06,ESE,121,1.0,5.0,97,0.00,,,0.03,Wunderground v.1.15,2013-03-18 16:10:00,
2013-03-18 12:20:00,36.2,35.4,30.06,South,186,1.0,2.0,97,0.00,,,0.03,Wunderground v.1.15,2013-03-18 16:20:00,
2013-03-18 12:25:00,36.2,35.4,30.05,SW,215,1.0,4.0,97,0.00,,,0.03,Wunderground v.1.15,2013-03-18 16:25:00,
2013-03-18 12:30:00,36.3,35.5,30.05,SE,129,1.0,4.0,97,0.00,,,0.03,Wunderground v.1.15,2013-03-18 16:30:00,
2013-03-18 12:40:00,36.2,35.4,30.07,ESE,120,1.0,4.0,97,0.00,,,0.03,Wunderground v.1.15,2013-03-18 16:40:00,
2013-03-18 12:45:00,36.2,35.4,30.07,ESE,120,0.0,0.0,97,0.00,,,0.03,Wunderground v.1.15,2013-03-18 16:45:00,
2013-03-18 12:50:00,36.2,35.4,30.06,ESE,120,0.0,0.0,97,0.00,,,0.03,Wunderground v.1.15,2013-03-18 16:50:00,
2013-03-18 12:55:00,36.4,35.6,30.05,ESE,119,0.0,0.0,97,0.00,,,0.03,Wunderground v.1.15,2013-03-18 16:55:00,
2013-03-18 13:00:00,36.4,35.6,30.04,ESE,119,0.0,0.0,97,0.00,,,0.03,Wunderground v.1.15,2013-03-18 17:00:00,
2013-03-18 13:05:00,36.6,36.1,30.04,SE,135,0.0,4.0,98,0.00,,,0.03,Wunderground v.1.15,2013-03-18 17:05:00,
2013-03-18 13:10:00,36.5,35.7,30.04,NNE,21,1.0,1.0,97,0.00,,,0.03,Wunderground v.1.15,2013-03-18 17:10:00,
2013-03-18 13:15:00,36.5,35.7,30.03,ESE,103,1.0,1.0,97,0.00,,,0.03,Wunderground v.1.15,2013-03-18 17:15:00,
2013-03-18 13:20:00,36.6,35.8,30.03,ESE,117,1.0,1.0,97,0.00,,,0.03,Wunderground v.1.15,2013-03-18 17:20:00,
2013-03-18 13:25:00,36.8,36.0,30.02,SE,128,0.0,1.0,97,0.00,,,0.03,Wunderground v.1.15,2013-03-18 17:25:00,
2013-03-18 13:30:00,37.0,36.5,30.03,SE,136,0.0,2.0,98,0.00,,,0.03,Wunderground v.1.15,2013-03-18 17:30:00,
2013-03-18 13:40:00,37.0,36.5,30.01,NE,54,0.0,0.0,98,0.00,,,0.03,Wunderground v.1.15,2013-03-18 17:40:00,
2013-03-18 13:45:00,36.9,36.4,30.02,NE,54,0.0,0.0,98,0.00,,,0.03,Wunderground v.1.15,2013-03-18 17:45:00,
2013-03-18 13:55:00,36.9,36.1,30.01,NE,54,0.0,0.0,97,0.00,,,0.03,Wunderground v.1.15,2013-03-18 17:55:00,
2013-03-18 14:00:00,36.9,36.1,30.01,NE,54,0.0,0.0,97,0.00,,,0.03,Wunderground v.1.15,2013-03-18 18:00:00,
2013-03-18 14:05:00,37.0,36.2,30.01,East,80,0.0,0.0,97,0.00,,,0.03,Wunderground v.1.15,2013-03-18 18:05:00,
2013-03-18 14:10:00,37.1,36.6,30.01,East,80,0.0,0.0,98,0.00,,,0.03,Wunderground v.1.15,2013-03-18 18:10:00,
2013-03-18 14:15:00,37.2,36.4,30.00,East,80,0.0,0.0,97,0.00,,,0.03,Wunderground v.1.15,2013-03-18 18:15:00,
2013-03-18 14:20:00,37.3,36.5,30.01,East,80,0.0,0.0,97,0.00,,,0.03,Wunderground v.1.15,2013-03-18 18:20:00,
2013-03-18 14:25:00,37.3,36.5,30.01,SE,138,0.0,0.0,97,0.00,,,0.03,Wunderground v.1.15,2013-03-18 18:25:00,
2013-03-18 14:30:00,37.4,36.6,30.00,SE,138,0.0,0.0,97,0.00,,,0.04,Wunderground v.1.15,2013-03-18 18:30:00,
2013-03-18 14:35:00,37.5,36.7,30.00,SE,138,0.0,0.0,97,0.00,,,0.04,Wunderground v.1.15,2013-03-18 18:35:00,
2013-03-18 14:40:00,37.6,37.1,30.00,SE,138,0.0,0.0,98,0.00,,,0.04,Wunderground v.1.15,2013-03-18 18:40:00,
2013-03-18 14:45:00,37.6,37.1,30.00,SE,138,0.0,0.0,98,0.04,,,0.05,Wunderground v.1.15,2013-03-18 18:45:00,
2013-03-18 14:50:00,37.6,36.8,30.00,ESE,112,0.0,0.0,97,0.04,,,0.05,Wunderground v.1.15,2013-03-18 18:50:00,
2013-03-18 14:55:00,37.7,36.9,29.99,ESE,112,0.0,0.0,97,0.04,,,0.05,Wunderground v.1.15,2013-03-18 18:55:00,
2013-03-18 15:00:00,37.7,36.9,29.98,ESE,112,0.0,0.0,97,0.00,,,0.05,Wunderground v.1.15,2013-03-18 19:00:00,
2013-03-18 15:05:00,37.8,37.0,29.99,ESE,112,0.0,0.0,97,0.00,,,0.05,Wunderground v.1.15,2013-03-18 19:05:00,
2013-03-18 15:10:00,37.9,37.1,29.98,ESE,112,0.0,0.0,97,0.00,,,0.06,Wunderground v.1.15,2013-03-18 19:10:00,
2013-03-18 15:15:00,37.8,37.0,29.99,ESE,112,0.0,0.0,97,0.00,,,0.06,Wunderground v.1.15,2013-03-18 19:15:00,
2013-03-18 15:25:00,37.8,37.0,29.96,ESE,113,0.0,0.0,97,0.00,,,0.06,Wunderground v.1.15,2013-03-18 19:25:00,
2013-03-18 15:30:00,37.9,37.1,29.96,ESE,113,0.0,0.0,97,0.00,,,0.06,Wunderground v.1.15,2013-03-18 19:30:00,
2013-03-18 15:35:00,38.0,37.2,29.97,ESE,106,0.0,0.0,97,0.00,,,0.06,Wunderground v.1.15,2013-03-18 19:35:00,
2013-03-18 15:40:00,38.0,37.2,29.96,ESE,106,0.0,0.0,97,0.00,,,0.06,Wunderground v.1.15,2013-03-18 19:40:00,
2013-03-18 15:45:00,38.0,37.2,29.96,ESE,106,0.0,1.0,97,0.00,,,0.06,Wunderground v.1.15,2013-03-18 19:45:00,
2013-03-18 15:50:00,38.0,37.2,29.96,ESE,108,0.0,0.0,97,0.00,,,0.06,Wunderground v.1.15,2013-03-18 19:50:00,
2013-03-18 15:55:00,38.0,37.2,29.96,ESE,108,0.0,0.0,97,0.00,,,0.06,Wunderground v.1.15,2013-03-18 19:55:00,
2013-03-18 16:00:00,37.9,37.1,29.96,SE,136,0.0,0.0,97,0.00,,,0.06,Wunderground v.1.15,2013-03-18 20:00:00,
2013-03-18 16:05:00,37.9,37.1,29.95,SE,136,0.0,0.0,97,0.00,,,0.07,Wunderground v.1.15,2013-03-18 20:05:00,
2013-03-18 16:10:00,37.9,37.1,29.96,SE,136,0.0,0.0,97,0.14,,,0.08,Wunderground v.1.15,2013-03-18 20:10:00,
2013-03-18 16:15:00,37.9,37.1,29.96,SE,136,0.0,0.0,97,0.06,,,0.08,Wunderground v.1.15,2013-03-18 20:15:00,
2013-03-18 16:20:00,37.9,37.1,29.97,SE,136,0.0,0.0,97,0.32,,,0.10,Wunderground v.1.15,2013-03-18 20:20:00,
2013-03-18 16:25:00,37.9,37.1,29.95,SE,136,0.0,0.0,97,0.09,,,0.10,Wunderground v.1.15,2013-03-18 20:25:00,
2013-03-18 16:30:00,37.9,37.1,29.95,SE,136,0.0,0.0,97,0.05,,,0.10,Wunderground v.1.15,2013-03-18 20:30:00,
2013-03-18 16:35:00,37.9,37.1,29.95,SE,136,0.0,0.0,97,0.04,,,0.10,Wunderground v.1.15,2013-03-18 20:35:00,
2013-03-18 16:40:00,37.9,37.1,29.96,SE,136,0.0,0.0,97,0.00,,,0.11,Wunderground v.1.15,2013-03-18 20:40:00,
2013-03-18 16:45:00,37.9,37.1,29.96,SE,136,0.0,0.0,97,0.00,,,0.11,Wunderground v.1.15,2013-03-18 20:45:00,
2013-03-18 16:50:00,38.0,37.2,29.95,SE,136,0.0,0.0,97,0.07,,,0.12,Wunderground v.1.15,2013-03-18 20:50:00,
2013-03-18 16:55:00,38.0,37.2,29.95,SE,136,0.0,0.0,97,0.10,,,0.13,Wunderground v.1.15,2013-03-18 20:55:00,
2013-03-18 17:00:00,38.0,37.2,29.95,SE,136,0.0,0.0,97,0.09,,,0.13,Wunderground v.1.15,2013-03-18 21:00:00,
2013-03-18 17:05:00,37.9,37.1,29.95,SE,136,0.0,0.0,97,0.05,,,0.13,Wunderground v.1.15,2013-03-18 21:05:00,
2013-03-18 17:10:00,37.8,37.0,29.96,SE,136,0.0,0.0,97,0.04,,,0.13,Wunderground v.1.15,2013-03-18 21:10:00,
2013-03-18 17:15:00,37.7,36.9,29.95,SE,136,0.0,0.0,97,0.00,,,0.13,Wunderground v.1.15,2013-03-18 21:15:00,
2013-03-18 17:20:00,37.8,37.0,29.95,SE,136,0.0,0.0,97,0.00,,,0.14,Wunderground v.1.15,2013-03-18 21:20:00,
2013-03-18 17:25:00,37.8,37.0,29.95,SE,136,0.0,0.0,97,0.00,,,0.14,Wunderground v.1.15,2013-03-18 21:25:00,
2013-03-18 17:30:00,37.8,37.0,29.96,SE,136,0.0,0.0,97,0.14,,,0.16,Wunderground v.1.15,2013-03-18 21:30:00,
2013-03-18 17:35:00,37.9,37.1,29.97,SE,136,0.0,0.0,97,0.12,,,0.16,Wunderground v.1.15,2013-03-18 21:35:00,
2013-03-18 17:40:00,38.0,37.2,29.97,SE,136,0.0,0.0,97,0.06,,,0.16,Wunderground v.1.15,2013-03-18 21:40:00,
2013-03-18 17:45:00,38.0,37.2,29.99,SE,136,0.0,2.0,97,0.05,,,0.17,Wunderground v.1.15,2013-03-18 21:45:00,
2013-03-18 17:50:00,38.0,37.2,29.99,SE,136,0.0,0.0,97,0.05,,,0.17,Wunderground v.1.15,2013-03-18 21:50:00,
2013-03-18 17:55:00,38.1,37.3,29.98,SE,136,0.0,0.0,97,0.05,,,0.18,Wunderground v.1.15,2013-03-18 21:55:00,
2013-03-18 18:00:00,38.2,37.4,29.98,SE,136,0.0,0.0,97,1.56,,,0.23,Wunderground v.1.15,2013-03-18 22:00:00,
2013-03-18 18:05:00,38.2,37.4,29.98,NNW,340,1.0,1.0,97,1.62,,,0.31,Wunderground v.1.15,2013-03-18 22:05:00,
2013-03-18 18:10:00,38.2,37.7,29.97,NNW,342,1.0,1.0,98,1.40,,,0.43,Wunderground v.1.15,2013-03-18 22:10:00,
2013-03-18 18:15:00,38.2,37.7,29.99,NW,326,0.0,1.0,98,0.21,,,0.45,Wunderground v.1.15,2013-03-18 22:15:00,
2013-03-18 18:20:00,38.2,37.7,29.99,NW,326,1.0,1.0,98,0.15,,,0.46,Wunderground v.1.15,2013-03-18 22:20:00,
2013-03-18 18:25:00,38.3,37.8,29.98,NW,326,1.0,1.0,98,0.13,,,0.47,Wunderground v.1.15,2013-03-18 22:25:00,
2013-03-18 18:30:00,38.3,37.8,29.99,NW,326,0.0,1.0,98,0.07,,,0.47,Wunderground v.1.15,2013-03-18 22:30:00,
2013-03-18 18:35:00,38.4,37.9,29.98,NE,35,1.0,3.0,98,0.04,,,0.47,Wunderground v.1.15,2013-03-18 22:35:00,
2013-03-18 18:40:00,39.1,38.6,29.98,NNE,33,3.0,3.0,98,0.00,,,0.47,Wunderground v.1.15,2013-03-18 22:40:00,
2013-03-18 18:45:00,40.3,39.8,29.97,SSW,202,2.0,4.0,98,0.00,,,0.48,Wunderground v.1.15,2013-03-18 22:45:00,
2013-03-18 18:55:00,40.8,40.3,29.98,NNW,334,1.0,2.0,98,0.35,,,0.50,Wunderground v.1.15,2013-03-18 22:55:00,
2013-03-18 19:00:00,41.2,40.7,29.98,NNE,13,1.0,1.0,98,0.48,,,0.55,Wunderground v.1.15,2013-03-18 23:00:00,
2013-03-18 19:05:00,41.3,41.0,29.99,NNE,13,1.0,1.0,99,0.15,,,0.56,Wunderground v.1.15,2013-03-18 23:05:00,
2013-03-18 19:10:00,41.3,41.0,29.99,NNE,13,0.0,0.0,99,0.24,,,0.58,Wunderground v.1.15,2013-03-18 23:10:00,
2013-03-18 19:15:00,41.4,40.9,29.98,NNE,13,0.0,0.0,98,0.14,,,0.59,Wunderground v.1.15,2013-03-18 23:15:00,
2013-03-18 19:20:00,41.5,41.0,29.99,NNE,13,0.0,0.0,98,0.19,,,0.61,Wunderground v.1.15,2013-03-18 23:20:00,
2013-03-18 19:25:00,41.5,41.0,29.98,NNE,13,0.0,0.0,98,0.09,,,0.61,Wunderground v.1.15,2013-03-18 23:25:00,
2013-03-18 19:30:00,41.5,41.0,29.97,NNE,13,0.0,0.0,98,0.07,,,0.62,Wunderground v.1.15,2013-03-18 23:30:00,
2013-03-18 19:35:00,41.5,41.0,29.97,NNE,13,0.0,0.0,98,0.07,,,0.62,Wunderground v.1.15,2013-03-18 23:35:00,
2013-03-18 19:39:00,41.5,41.0,29.98,NNE,13,0.0,0.0,98,0.06,,,0.63,Wunderground v.1.15,2013-03-18 23:39:00,
2013-03-18 19:44:00,41.5,41.0,29.98,NNE,13,0.0,0.0,98,0.06,,,0.63,Wunderground v.1.15,2013-03-18 23:44:00,
2013-03-18 19:50:00,41.5,41.0,29.99,NNE,13,0.0,0.0,98,0.04,,,0.63,Wunderground v.1.15,2013-03-18 23:50:00,
2013-03-18 19:55:00,41.5,41.0,29.99,NNE,13,0.0,0.0,98,0.00,,,0.63,Wunderground v.1.15,2013-03-18 23:55:00,
2013-03-18 20:00:00,41.5,41.0,29.99,NNE,13,0.0,0.0,98,0.00,,,0.64,Wunderground v.1.15,2013-03-19 00:00:00,
2013-03-18 20:05:00,41.5,41.0,29.99,NNE,13,0.0,0.0,98,0.00,,,0.64,Wunderground v.1.15,2013-03-19 00:05:00,
2013-03-18 20:10:00,41.5,41.0,30.00,NNE,13,0.0,0.0,98,0.00,,,0.64,Wunderground v.1.15,2013-03-19 00:10:00,
2013-03-18 20:15:00,41.6,41.1,29.99,NNE,13,0.0,0.0,98,0.00,,,0.64,Wunderground v.1.15,2013-03-19 00:15:00,
2013-03-18 20:19:00,41.6,41.1,29.98,NNE,13,0.0,0.0,98,0.00,,,0.64,Wunderground v.1.15,2013-03-19 00:19:00,
2013-03-18 20:24:00,41.6,41.1,29.97,NNE,13,0.0,0.0,98,0.00,,,0.64,Wunderground v.1.15,2013-03-19 00:24:00,
2013-03-18 20:29:00,41.6,41.1,29.97,NNE,13,0.0,0.0,98,0.00,,,0.65,Wunderground v.1.15,2013-03-19 00:29:00,
2013-03-18 20:35:00,41.6,41.1,29.96,NNE,13,0.0,0.0,98,0.00,,,0.65,Wunderground v.1.15,2013-03-19 00:35:00,
2013-03-18 20:40:00,41.6,41.1,29.95,NNE,13,0.0,0.0,98,0.00,,,0.65,Wunderground v.1.15,2013-03-19 00:40:00,
2013-03-18 20:45:00,41.7,41.2,29.93,NNE,13,0.0,0.0,98,0.00,,,0.65,Wunderground v.1.15,2013-03-19 00:45:00,
2013-03-18 20:50:00,41.8,41.3,29.92,NNE,13,0.0,0.0,98,0.00,,,0.65,Wunderground v.1.15,2013-03-19 00:50:00,
2013-03-18 20:55:00,42.0,41.5,29.93,NNE,13,0.0,0.0,98,0.00,,,0.65,Wunderground v.1.15,2013-03-19 00:55:00,
2013-03-18 21:00:00,42.2,41.7,29.91,NNE,13,0.0,1.0,98,0.00,,,0.65,Wunderground v.1.15,2013-03-19 01:00:00,
2013-03-18 21:05:00,42.4,41.9,29.90,SW,221,1.0,2.0,98,0.00,,,0.65,Wunderground v.1.15,2013-03-19 01:05:00,
2013-03-18 21:10:00,42.7,42.4,29.92,SW,221,1.0,1.0,99,0.00,,,0.65,Wunderground v.1.15,2013-03-19 01:10:00,
2013-03-18 21:15:00,43.0,42.5,29.92,SW,221,1.0,1.0,98,0.00,,,0.65,Wunderground v.1.15,2013-03-19 01:15:00,
2013-03-18 21:24:00,43.0,42.5,29.93,SW,221,0.0,0.0,98,0.00,,,0.65,Wunderground v.1.15,2013-03-19 01:24:00,
2013-03-18 21:30:00,43.1,42.6,29.94,SW,221,0.0,0.0,98,0.00,,,0.65,Wunderground v.1.15,2013-03-19 01:30:00,
2013-03-18 21:35:00,43.0,42.5,29.93,SW,221,0.0,0.0,98,0.00,,,0.65,Wunderground v.1.15,2013-03-19 01:35:00,
2013-03-18 21:40:00,42.9,42.4,29.93,SW,221,0.0,0.0,98,0.00,,,0.65,Wunderground v.1.15,2013-03-19 01:40:00,
2013-03-18 21:45:00,42.9,42.4,29.93,SW,221,0.0,0.0,98,0.00,,,0.65,Wunderground v.1.15,2013-03-19 01:45:00,
2013-03-18 21:55:00,42.8,42.3,29.93,SW,221,0.0,0.0,98,0.00,,,0.65,Wunderground v.1.15,2013-03-19 01:55:00,
2013-03-18 22:00:00,42.7,42.2,29.93,SW,221,0.0,0.0,98,0.00,,,0.65,Wunderground v.1.15,2013-03-19 02:00:00,
2013-03-18 22:05:00,42.6,42.1,29.93,SW,221,0.0,0.0,98,0.00,,,0.65,Wunderground v.1.15,2013-03-19 02:05:00,
2013-03-18 22:10:00,42.5,42.0,29.93,SW,221,0.0,0.0,98,0.00,,,0.65,Wunderground v.1.15,2013-03-19 02:10:00,
2013-03-18 22:14:00,42.4,41.9,29.93,SW,221,0.0,0.0,98,0.00,,,0.65,Wunderground v.1.15,2013-03-19 02:14:00,
2013-03-18 22:20:00,42.3,41.8,29.93,SW,221,0.0,0.0,98,0.00,,,0.65,Wunderground v.1.15,2013-03-19 02:20:00,
2013-03-18 22:25:00,42.2,41.7,29.93,SW,221,0.0,0.0,98,0.00,,,0.65,Wunderground v.1.15,2013-03-19 02:25:00,
2013-03-18 22:30:00,42.1,41.6,29.93,SW,221,0.0,0.0,98,0.00,,,0.65,Wunderground v.1.15,2013-03-19 02:30:00,
2013-03-18 22:35:00,42.0,41.5,29.93,SW,221,0.0,0.0,98,0.00,,,0.65,Wunderground v.1.15,2013-03-19 02:35:00,
2013-03-18 22:40:00,41.9,41.4,29.93,SW,221,0.0,0.0,98,0.00,,,0.65,Wunderground v.1.15,2013-03-19 02:40:00,
2013-03-18 22:45:00,41.8,41.3,29.93,SW,221,0.0,0.0,98,0.00,,,0.65,Wunderground v.1.15,2013-03-19 02:45:00,
2013-03-18 22:55:00,41.6,41.1,29.94,SW,221,0.0,0.0,98,0.00,,,0.65,Wunderground v.1.15,2013-03-19 02:55:00,
2013-03-18 23:00:00,41.5,41.0,29.94,SW,221,0.0,0.0,98,0.00,,,0.65,Wunderground v.1.15,2013-03-19 03:00:00,
2013-03-18 23:05:00,41.4,40.9,29.94,SW,221,0.0,0.0,98,0.00,,,0.65,Wunderground v.1.15,2013-03-19 03:05:00,
2013-03-18 23:09:00,41.3,40.8,29.94,SW,221,0.0,0.0,98,0.00,,,0.65,Wunderground v.1.15,2013-03-19 03:09:00,
2013-03-18 23:14:00,41.1,40.6,29.94,SW,221,0.0,0.0,98,0.00,,,0.65,Wunderground v.1.15,2013-03-19 03:14:00,
2013-03-18 23:20:00,41.0,40.5,29.94,SW,221,0.0,0.0,98,0.00,,,0.65,Wunderground v.1.15,2013-03-19 03:20:00,
2013-03-18 23:25:00,41.0,40.5,29.94,SW,221,0.0,0.0,98,0.00,,,0.65,Wunderground v.1.15,2013-03-19 03:25:00,
2013-03-18 23:30:00,40.9,40.4,29.94,SW,221,0.0,0.0,98,0.00,,,0.65,Wunderground v.1.15,2013-03-19 03:30:00,
2013-03-18 23:40:00,40.8,40.3,29.94,SW,221,0.0,0.0,98,0.00,,,0.65,Wunderground v.1.15,2013-03-19 03:40:00,
2013-03-18 23:45:00,40.8,40.3,29.94,SW,221,0.0,0.0,98,0.00,,,0.65,Wunderground v.1.15,2013-03-19 03:45:00,
2013-03-18 23:50:00,40.8,40.3,29.94,SW,221,0.0,0.0,98,0.00,,,0.65,Wunderground v.1.15,2013-03-19 03:50:00,
2013-03-18 23:54:00,40.8,40.3,29.94,SW,221,0.0,0.0,98,0.00,,,0.65,Wunderground v.1.15,2013-03-19 03:54:00,
2013-03-18 23:59:00,40.7,40.2,29.94,SW,221,0.0,0.0,98,0.00,,,0.65,Wunderground v.1.15,2013-03-19 03:59:00,